TimeCST,TemperatureF,Dew PointF,Humidity,Sea Level PressureIn,VisibilityMPH,Wind Direction,Wind SpeedMPH,Gust SpeedMPH,PrecipitationIn,Events,Conditions,WindDirDegrees,DateUTC
12:52 AM,8.1,6.1,92,29.85,10.0,ENE,8.1,-,N/A,,Clear,70,2013-01-08 06:52:00
1:52 AM,5.0,1.9,87,29.83,10.0,NE,10.4,-,N/A,,Clear,50,2013-01-08 07:52:00
2:52 AM,6.1,3.0,87,29.81,10.0,NE,9.2,-,N/A,,Scattered Clouds,50,2013-01-08 08:52:00
3:52 AM,12.0,9.0,88,29.78,10.0,NE,6.9,-,N/A,,Overcast,40,2013-01-08 09:52:00
4:52 AM,12.9,10.9,92,29.75,10.0,NE,6.9,-,N/A,,Overcast,40,2013-01-08 10:52:00
5:52 AM,16.0,12.9,88,29.72,10.0,NE,5.8,-,N/A,,Overcast,50,2013-01-08 11:52:00
6:52 AM,19.0,17.1,92,29.72,10.0,Calm,Calm,-,N/A,,Overcast,0,2013-01-08 12:52:00
7:52 AM,21.9,19.0,89,29.72,10.0,SSE,3.5,-,N/A,,Overcast,160,2013-01-08 13:52:00
8:19 AM,24.1,21.0,88,29.63,5.0,Calm,Calm,-,0.01,Snow,Light Snow,0,2013-01-08 14:19:00
8:43 AM,26.1,23.0,88,29.62,10.0,SSE,6.9,-,0.02,,Overcast,150,2013-01-08 14:43:00
8:52 AM,27.0,24.1,89,29.71,10.0,SSE,9.2,-,0.02,,Overcast,150,2013-01-08 14:52:00
9:52 AM,27.0,24.1,89,29.72,10.0,South,4.6,-,0.00,,Overcast,170,2013-01-08 15:52:00
10:52 AM,30.9,26.1,82,29.74,10.0,WSW,8.1,-,N/A,,Partly Cloudy,240,2013-01-08 16:52:00
11:52 AM,37.0,28.0,70,29.73,10.0,WNW,17.3,25.3,N/A,,Clear,290,2013-01-08 17:52:00
12:52 PM,37.9,28.0,68,29.74,10.0,WNW,16.1,25.3,N/A,,Clear,290,2013-01-08 18:52:00
1:52 PM,39.0,27.0,62,29.75,10.0,West,16.1,-,N/A,,Clear,280,2013-01-08 19:52:00
2:52 PM,39.0,28.0,65,29.78,10.0,WNW,17.3,-,N/A,,Clear,290,2013-01-08 20:52:00
3:52 PM,37.9,28.0,68,29.80,10.0,West,13.8,19.6,N/A,,Clear,280,2013-01-08 21:52:00
4:52 PM,37.0,27.0,67,29.83,10.0,West,19.6,-,N/A,,Clear,280,2013-01-08 22:52:00
5:52 PM,36.0,25.0,64,29.86,10.0,WNW,15.0,-,N/A,,Overcast,300,2013-01-08 23:52:00
6:52 PM,35.6,26.6,70,29.81,10.0,West,18.4,28.8,N/A,,Overcast,270,2013-01-09 00:52:00
7:52 PM,34.0,25.0,70,29.89,10.0,West,17.3,21.9,N/A,,Clear,270,2013-01-09 01:52:00
8:52 PM,34.0,25.0,70,29.91,10.0,West,21.9,28.8,N/A,,Clear,270,2013-01-09 02:52:00
9:52 PM,33.1,24.1,70,29.94,10.0,West,20.7,34.5,N/A,,Clear,280,2013-01-09 03:52:00
10:52 PM,30.9,23.0,72,29.98,10.0,West,19.6,28.8,N/A,,Clear,280,2013-01-09 04:52:00
11:52 PM,28.9,21.0,72,30.00,10.0,West,18.4,-,N/A,,Clear,280,2013-01-09 05:52:00